Location: Baix
(44.7118°N, 4.7648°E)
Time: 10:49:39
(UTC+00:00)

Vanguard 2 Rocket - Pass Details

Date: 27 November 2020
Orbit: 554 x 3325 km, 32.9° (Epoch: 21 January)

Event Time Altitude Azimuth Distance (km) Brightness Sun altitude
Rises 06:03:11 0° 208° (SSW) 6,948 11.3 -8.9°
Reaches altitude 10° 06:08:35 10° 198° (SSW) 6,137 11.2 -8.0°
Maximum altitude 06:24:24 31° 147° (SSE) 4,687 11.3 -5.5°
Drops below altitude 10° 06:38:37 10° 94° (E) 5,568 12.3 -3.2°
Sets 06:43:06 0° 85° (E) 6,248 12.3 -2.5°
